Location: Newark
(43.4306°N, 0.3089°E)
Time: 15:55:26
(UTC+00:00)

A-11 Canister half - Pass Details

Date: 27 August 2019
Orbit: 1514 x 1686 km, 47.2° (Epoch: 18 October)

Event Time Altitude Azimuth Distance (km) Brightness Sun altitude
Rises 20:14:59 0° 283° (WNW) 4,715 13.0 -16.1°
Reaches altitude 10° 20:18:01 10° 285° (WNW) 3,751 12.2 -16.6°
Maximum altitude 20:27:35 75° 11° (N) 1,650 9.2 -18.1°
Enters shadow 20:35:03 20° 95° (E) 3,130 10.1 -19.2°
